TimePDT,TemperatureF,Dew PointF,Humidity,Sea Level PressureIn,VisibilityMPH,Wind Direction,Wind SpeedMPH,Gust SpeedMPH,PrecipitationIn,Events,Conditions,WindDirDegrees,DateUTC
12:56 AM,54.0,37.0,53,29.83,10.0,WNW,5.8,-,N/A,,Clear,300,2012-10-12 07:56:00
1:56 AM,53.1,37.9,57,29.82,10.0,West,4.6,-,N/A,,Clear,260,2012-10-12 08:56:00
2:56 AM,52.0,37.9,59,29.83,10.0,South,8.1,-,N/A,,Clear,170,2012-10-12 09:56:00
3:56 AM,51.1,37.0,59,29.83,10.0,South,6.9,-,N/A,,Clear,170,2012-10-12 10:56:00
4:56 AM,50.0,37.9,63,29.85,10.0,WSW,3.5,-,N/A,,Clear,240,2012-10-12 11:56:00
5:56 AM,48.9,39.0,69,29.86,10.0,Calm,Calm,-,N/A,,Clear,0,2012-10-12 12:56:00
7:56 AM,46.9,34.0,61,29.89,10.0,SSW,11.5,-,N/A,,Clear,200,2012-10-12 14:56:00
8:56 AM,48.9,35.1,59,29.91,10.0,South,13.8,18.4,N/A,,Clear,190,2012-10-12 15:56:00
9:56 AM,50.0,35.1,57,29.94,10.0,South,13.8,23.0,N/A,,Clear,190,2012-10-12 16:56:00
10:56 AM,50.0,34.0,54,29.96,10.0,South,10.4,17.3,N/A,,Scattered Clouds,190,2012-10-12 17:56:00
11:56 AM,54.0,33.1,45,29.95,10.0,South,10.4,-,N/A,,Partly Cloudy,180,2012-10-12 18:56:00
1:56 PM,55.9,35.1,45,29.97,10.0,Calm,Calm,-,N/A,,Mostly Cloudy,0,2012-10-12 20:56:00
2:56 PM,55.9,35.1,45,29.99,10.0,Calm,Calm,-,N/A,,Mostly Cloudy,0,2012-10-12 21:56:00
3:56 PM,55.0,37.0,51,30.00,10.0,Variable,3.5,-,N/A,,Partly Cloudy,0,2012-10-12 22:56:00
4:56 PM,54.0,37.9,55,30.02,10.0,Variable,3.5,-,N/A,,Clear,0,2012-10-12 23:56:00
5:56 PM,52.0,32.0,47,30.04,10.0,Variable,5.8,-,N/A,,Clear,0,2012-10-13 00:56:00
6:56 PM,51.1,32.0,48,30.05,10.0,SSW,9.2,-,N/A,,Mostly Cloudy,210,2012-10-13 01:56:00
7:56 PM,48.9,34.0,56,30.08,10.0,South,12.7,-,0.00,,Overcast,190,2012-10-13 02:56:00
9:24 PM,44.6,42.8,93,30.12,10.0,South,12.7,-,0.01,,Overcast,180,2012-10-13 04:24:00
9:41 PM,46.4,44.6,93,30.13,10.0,SSW,11.5,-,0.01,,Overcast,200,2012-10-13 04:41:00
9:56 PM,46.0,39.9,79,30.11,10.0,SSW,15.0,-,0.01,,Overcast,210,2012-10-13 04:56:00
10:56 PM,46.0,42.1,86,30.13,10.0,SSW,11.5,-,0.00,Rain,Light Rain,200,2012-10-13 05:56:00
11:56 PM,46.0,45.0,96,30.13,1.5,SSW,10.4,-,0.00,,Overcast,200,2012-10-13 06:56:00